x

Manistee Harbor, Mi (meem4) Weather Station

5:40am - Mon 20th Nov 2017 All times are CST. -6 hours from GMT.

  • Wind
    13mph, 15mph gusts
  • Air Temp 41°f
  • Sea Pressure 1011.9mb
  • Manistee Harbor, Mi
  • Manistee Harbor, Mi

More Historic Weather Station data

Upgrade to MSW Pro to gain access to the past 30 days of data for over 8000 Wavebouys and Weather Stations around the globe.

Join

Comparision Forecast

View Surf forecast
   
Mon 11/20 5:40am 13 15 mph 1011.9mb 41f
5:30am 13 16 mph 1012.2mb 41f
5:20am 13 16 mph 1012.2mb 41f
5:10am 13 15 mph 1012.2mb 41f
5:00am 10 16 mph 1012.2mb 41f
4:40am 10 13 mph 1011.9mb 41f
4:30am 10 14 mph 1011.9mb 41f
4:20am 10 14 mph 1011.9mb 40f
4:10am 11 14 mph 1011.9mb 40f
4:00am 9 13 mph 1011.9mb 40f
3:40am 10 13 mph 1012.5mb 40f
3:30am 11 14 mph 1012.5mb 40f
3:20am 11 18 mph 1012.9mb 39f
3:10am 14 18 mph 1012.9mb 39f
3:00am 16 21 mph 1012.9mb 39f
2:40am 15 21 mph 1012.9mb 39f
2:30am 18 21 mph 1012.5mb 39f
2:20am 17 20 mph 1012.9mb 39f
2:10am 16 21 mph 1012.5mb 39f
2:00am 20 23 mph 1012.9mb 38f
1:40am 20 24 mph 1013.2mb 39f
1:30am 18 25 mph 1013.5mb 39f
1:20am 22 26 mph 1013.2mb 38f
1:10am 24 28 mph 1013.5mb 38f
1:00am 22 28 mph 1013.9mb 38f
12:40am 24 29 mph 1013.9mb 38f
12:30am 23 28 mph 1013.9mb 39f
12:20am 20 25 mph 1013.9mb 38f
12:10am 22 26 mph 1013.9mb 38f
12:00am 21 24 mph 1013.9mb 38f
Sun 11/19 11:40pm 18 24 mph 1013.5mb 38f
11:30pm 20 24 mph 1013.5mb 37f
11:20pm 18 25 mph 1013.9mb 37f
11:10pm 18 25 mph 1013.9mb 37f
11:00pm 21 25 mph 1013.9mb 37f
10:40pm 18 23 mph 1013.9mb 37f
10:30pm 20 24 mph 1013.9mb 37f
10:20pm 18 25 mph 1013.9mb 37f
10:10pm 24 29 mph 1014.2mb 36f
10:00pm 22 26 mph 1014.6mb 37f
9:40pm 23 26 mph 1014.6mb 36f
9:30pm 20 24 mph 1014.9mb 36f
9:20pm 21 25 mph 1014.9mb 35f
9:10pm 17 23 mph 1014.9mb 35f
9:00pm 22 26 mph 1014.9mb 35f
8:40pm 21 28 mph 1014.9mb 34f
8:30pm 17 24 mph 1014.9mb 35f
8:20pm 21 28 mph 1014.6mb 34f
8:10pm 20 26 mph 1014.9mb 34f
8:00pm 23 26 mph 1014.9mb 34f
7:40pm 17 28 mph 1014.9mb 34f
7:30pm 18 25 mph 1014.9mb 34f
7:20pm 16 24 mph 1014.9mb 34f
7:10pm 21 26 mph 1014.9mb 34f
7:00pm 17 23 mph 1014.9mb 33f
6:40pm 17 21 mph 1014.9mb 34f
6:30pm 17 22 mph 1014.9mb 33f
6:20pm 15 23 mph 1014.9mb 33f
6:10pm 17 21 mph 1014.9mb 34f
6:00pm 15 22 mph 1014.9mb 34f
4:40pm 13 20 mph 1014.6mb 31f
4:30pm 11 21 mph 1014.6mb 31f
4:20pm 15 20 mph 1014.6mb 31f
4:10pm 14 22 mph 1014.9mb 30f
4:00pm 15 18 mph 1014.9mb 31f
3:40pm 14 21 mph 1014.9mb 30f
3:30pm 14 18 mph 1014.9mb 31f
3:20pm 11 18 mph 1014.9mb 30f
3:10pm 13 17 mph 1014.9mb 30f
3:00pm 16 20 mph 1014.9mb 30f
2:40pm 16 21 mph 1014.9mb 30f
2:30pm 14 18 mph 1014.9mb 29f
2:20pm 16 23 mph 1014.9mb 29f
2:10pm 17 21 mph 1014.6mb 29f
2:00pm 15 22 mph 1014.6mb 29f
1:40pm 16 21 mph 1014.6mb 29f
1:30pm 18 23 mph 1014.6mb 29f
1:20pm 17 25 mph 1014.6mb 29f
1:10pm 15 24 mph 1014.6mb 29f
1:00pm 17 23 mph 1014.6mb 29f
12:40pm 17 22 mph 1014.2mb 29f
12:30pm 16 22 mph 1014.2mb 29f
12:20pm 15 22 mph 1014.2mb 29f
12:10pm 15 23 mph 1014.6mb 29f
12:00pm 13 23 mph 1014.6mb 29f
11:40am 21 24 mph 1014.2mb 30f
11:30am 20 24 mph 1014.2mb 29f
11:20am 18 26 mph 1014.2mb 30f
11:10am 22 29 mph 1013.9mb 30f
11:00am 20 26 mph 1014.2mb 30f
10:40am 21 29 mph 1013.9mb 30f
10:30am 22 28 mph 1013.9mb 30f
10:20am 23 26 mph 1013.9mb 31f
10:10am 24 29 mph 1013.9mb 31f
10:00am 21 29 mph 1013.5mb 31f
9:40am 23 26 mph 1013.2mb 31f
9:30am 23 31 mph 1012.9mb 31f
9:20am 24 30 mph 1012.9mb 32f
9:10am 23 29 mph 1012.9mb 31f
9:00am 22 28 mph 1012.9mb 32f
8:40am 25 30 mph 1012.5mb 32f
8:30am 23 31 mph 1012.2mb 32f
8:20am 23 30 mph 1012.5mb 32f
8:10am 23 32 mph 1012.2mb 32f
8:00am 22 30 mph 1012.2mb 34f
7:40am 23 28 mph 1011.9mb 33f
7:30am 21 29 mph 1011.9mb 33f
7:20am 16 23 mph 1011.9mb 33f
7:10am 16 26 mph 1011.9mb 33f
7:00am 23 31 mph 1011.2mb 33f
6:40am 23 29 mph 1011.2mb 33f
6:30am 22 29 mph 1010.8mb 33f
6:20am 23 29 mph 1010.8mb 33f
6:10am 25 30 mph 1010.5mb 33f
6:00am 21 30 mph 1010.5mb 33f
5:50am 24 30 mph 1010.2mb 34f
5:40am 24 30 mph 1009.8mb 34f
5:30am 26 32 mph 1009.8mb 34f
5:20am 24 32 mph 1009.8mb 33f
5:10am 23 31 mph 1009.8mb 34f
5:00am 26 32 mph 1009.5mb 34f
4:50am 29 34 mph 1009.5mb 34f
4:40am 30 37 mph 1009.5mb 35f
4:30am 26 34 mph 1009.5mb 35f
4:20am 29 34 mph 1009.1mb 35f
4:10am 28 36 mph 1009.1mb 36f
4:00am 28 33 mph 1008.8mb 36f
3:50am 26 31 mph 1009.1mb 35f
3:40am 24 31 mph 1009.1mb 36f
3:30am 29 33 mph 1009.1mb 36f
3:20am 26 33 mph 1009.1mb 36f
3:10am 29 32 mph 1008.8mb 36f
3:00am 28 33 mph 1009.1mb 35f
2:50am 29 36 mph 1008.8mb 36f
2:40am 28 33 mph 1008.8mb 35f
2:30am 28 34 mph 1008.5mb 37f
2:20am 31 34 mph 1008.1mb 36f
2:10am 29 34 mph 1007.8mb 35f
2:00am 28 32 mph 1007.8mb 37f
1:50am 24 30 mph 1007.5mb 37f
1:40am 26 32 mph 1007.5mb 36f
1:30am 24 29 mph 1007.5mb 37f
1:20am 24 32 mph 1007.1mb 37f
1:10am 25 33 mph 1007.5mb 37f
1:00am 25 33 mph 1007.5mb 37f
12:50am 28 36 mph 1007.8mb 37f
12:40am 26 33 mph 1007.5mb 37f
12:30am 26 36 mph 1007.8mb 37f
12:20am 26 31 mph 1007.8mb 37f
12:10am 23 36 mph 1007.5mb 37f
12:00am 28 33 mph 1007.8mb 37f
Sat 11/18 11:50pm 31 37 mph 1007.1mb 37f
11:40pm 30 36 mph 1007.1mb 37f
11:30pm 29 38 mph 1007.1mb 37f
11:20pm 29 37 mph 1006.8mb 37f
11:10pm 32 36 mph 1006.4mb 37f
11:00pm 29 38 mph 1006.1mb 37f
10:50pm 33 41 mph 1005.8mb 36f
10:40pm 29 40 mph 1005.8mb 37f
10:30pm 32 37 mph 1005.4mb 37f
10:20pm 30 37 mph 1006.1mb 37f
10:10pm 26 32 mph 1006.1mb 38f
10:00pm 31 39 mph 1006.1mb 36f
9:50pm 34 40 mph 1005.8mb 37f
9:40pm 33 38 mph 1005.4mb 38f
9:30pm 32 38 mph 1005.1mb 38f
9:20pm 33 41 mph 1005.4mb 38f
9:10pm 32 37 mph 1004.7mb 38f
9:00pm 30 40 mph 1004.4mb 38f
8:50pm 31 40 mph 1004.1mb 39f
8:40pm 30 41 mph 1003.7mb 38f
8:30pm 34 40 mph 1003.4mb 39f
8:20pm 34 41 mph 1003.7mb 39f
8:10pm 34 39 mph 1003.7mb 39f
8:00pm 34 43 mph 1003.7mb 39f
7:50pm 34 41 mph 1003.4mb 39f
7:40pm 31 40 mph 1003.4mb 40f
7:30pm 33 41 mph 1002.7mb 40f
7:20pm 34 40 mph 1002.7mb 40f
7:10pm 29 38 mph 1002.4mb 41f
7:00pm 30 38 mph 1002.4mb 41f
6:50pm 32 39 mph 1002.7mb 41f
6:40pm 32 38 mph 1002.7mb 41f
6:30pm 33 40 mph 1002.4mb 41f
6:20pm 32 39 mph 1002mb 42f
6:10pm 31 40 mph 1002mb 41f
6:00pm 30 39 mph 1001.7mb 42f
5:50pm 36 41 mph 1001.4mb 42f
5:40pm 34 43 mph 1001mb 42f
5:30pm 34 43 mph 1001.7mb 42f
5:20pm 37 44 mph 1001.4mb 42f
5:10pm 32 40 mph 1001.4mb 42f
5:00pm 31 39 mph 1000.7mb 43f
4:40pm 33 39 mph 1000mb 43f
4:30pm 30 39 mph 1000mb 43f
4:20pm 30 36 mph 1000.3mb 43f
4:10pm 31 40 mph 1000.7mb 42f
4:00pm 36 39 mph 1000.3mb 43f
3:50pm 30 39 mph 1000.3mb 42f
3:40pm 33 39 mph 999.7mb 42f
3:30pm 30 37 mph 999mb 42f
3:20pm 32 37 mph 998.6mb 43f
3:10pm 29 34 mph 999mb 43f
3:00pm 29 34 mph 999.3mb 43f
2:50pm 29 34 mph 999.7mb 42f
2:40pm 28 36 mph 999.7mb 42f
2:30pm 26 36 mph 999.3mb 42f
2:20pm 28 36 mph 998.6mb 43f
2:10pm 26 37 mph 998.6mb 43f
2:00pm 30 36 mph 998.6mb 43f
1:50pm 23 33 mph 999.3mb 43f
1:40pm 25 31 mph 999.3mb 43f
1:30pm 24 32 mph 999.7mb 43f
1:20pm 24 31 mph 999.3mb 42f
1:10pm 24 30 mph 999mb 42f
1:00pm 24 32 mph 998.3mb 43f
12:50pm 23 26 mph 998.6mb 42f
12:40pm 23 28 mph 999mb 42f
12:30pm 23 30 mph 999.3mb 41f
12:20pm 23 29 mph 999.3mb 41f
12:10pm 23 29 mph 999.3mb 41f
12:00pm 24 29 mph 999mb 41f
11:50am 24 29 mph 998.6mb 41f
11:40am 25 29 mph 998.6mb 41f
11:30am 25 30 mph 999mb 42f
11:20am 24 28 mph 999.3mb 42f
11:10am 26 29 mph 999.7mb 42f
11:00am 24 29 mph 1000mb 42f
10:50am 21 25 mph 1000mb 42f
10:40am 22 26 mph 1000.3mb 42f
10:30am 23 30 mph 999.3mb 42f
10:20am 24 28 mph 999mb 42f
10:10am 25 29 mph 999.3mb 42f
10:00am 24 29 mph 1000mb 42f
9:50am 26 31 mph 1000mb 42f
9:40am 26 33 mph 999.7mb 42f
9:30am 26 30 mph 999.7mb 42f
9:20am 23 30 mph 999.7mb 42f
9:10am 25 30 mph 999.7mb 42f
9:00am 26 30 mph 1000mb 42f
8:50am 23 29 mph 1000mb 42f
8:40am 23 26 mph 1000.3mb 42f
8:30am 22 28 mph 1000.3mb 42f
8:20am 20 26 mph 1000.7mb 43f
8:10am 20 26 mph 1000mb 43f
8:00am 21 25 mph 999.3mb 43f
7:50am 20 25 mph 999.7mb 43f
7:40am 21 24 mph 1000.3mb 43f
7:30am 20 26 mph 1000.7mb 43f
7:20am 21 26 mph 1000.3mb 43f
7:10am 18 23 mph 1000.3mb 43f
7:00am 18 25 mph 1000mb 43f
6:50am 22 25 mph 999mb 43f
6:40am 20 23 mph 999.3mb 43f
6:30am 21 24 mph 999.3mb 43f
6:20am 17 24 mph 999.7mb 43f
6:10am 18 21 mph 999.7mb 43f
6:00am 17 18 mph 999.7mb 43f
5:50am 16 20 mph 999.3mb 43f
5:40am 15 20 mph 999.7mb 43f
5:30am 15 18 mph 1000.3mb 43f
5:20am 15 18 mph 1001.4mb 43f
5:10am 16 20 mph 1001mb 43f
5:00am 16 22 mph 1001mb 43f
4:40am 20 22 mph 1000mb 43f
4:30am 14 18 mph 1000.3mb 43f
4:20am 16 18 mph 1000.3mb 43f
4:10am 16 17 mph 1001mb 43f
4:00am 14 18 mph 1001.4mb 43f
3:50am 15 20 mph 1001mb 43f
3:40am 17 20 mph 1000.7mb 43f
3:30am 16 21 mph 1000.3mb 43f
3:20am 15 18 mph 1000mb 43f
3:10am 16 20 mph 1000mb 42f
3:00am 15 18 mph 1000.3mb 42f
2:50am 15 20 mph 1000.7mb 42f
2:40am 14 18 mph 1000.7mb 42f
2:30am 15 18 mph 1000.7mb 42f
2:20am 17 20 mph 1000.3mb 43f
2:10am 16 18 mph 1000.3mb 43f
2:00am 16 20 mph 1000.3mb 43f
1:50am 17 20 mph 1001mb 43f
1:40am 15 17 mph 1001mb 43f
1:30am 15 18 mph 1001mb 43f
1:20am 14 18 mph 1000.7mb 43f
1:10am 17 20 mph 1000.7mb 43f
1:00am 18 22 mph 1000.3mb 44f
12:50am 20 23 mph 1000.7mb 44f
12:40am 17 22 mph 1001mb 44f
12:30am 20 23 mph 1001.7mb 44f
12:20am 20 22 mph 1001.7mb 44f
12:10am 7 9 mph 1002mb 42f
12:00am 5 9 mph 1002mb 41f
Fri 11/17 11:50pm 5 9 mph 1002mb 40f
11:40pm 3 11 mph 1001.7mb 40f
11:30pm 9 13 mph 1001mb 40f
11:20pm 10 15 mph 1001mb 40f
11:10pm 10 16 mph 1001.4mb 40f
11:00pm 7 14 mph 1001.7mb 40f
10:50pm 8 11 mph 1002.4mb 40f
10:40pm 7 11 mph 1002.7mb 40f
10:30pm 5 9 mph 1003.4mb 40f
10:20pm 6 9 mph 1003.4mb 40f
10:10pm 2 7 mph 1003.7mb 40f
10:00pm 2 6 mph 1003.7mb 40f
9:50pm 3 7 mph 1003.7mb 40f
9:40pm 5 8 mph 1003.4mb 40f
9:30pm 5 7 mph 1003.4mb 40f
9:20pm 5 10 mph 1003.4mb 40f
9:10pm 7 10 mph 1003.7mb 40f
9:00pm 8 13 mph 1003.7mb 40f
8:50pm 9 13 mph 1003.7mb 40f
8:40pm 7 11 mph 1004.4mb 40f
8:30pm 7 11 mph 1004.7mb 40f
8:20pm 8 14 mph 1004.7mb 40f
8:10pm 9 15 mph 1004.7mb 40f
8:00pm 9 14 mph 1004.7mb 40f
7:50pm 11 21 mph 1004.7mb 40f
7:40pm 11 16 mph 1004.4mb 40f
7:30pm 14 21 mph 1004.7mb 40f
7:20pm 15 21 mph 1005.1mb 40f
7:10pm 11 17 mph 1005.1mb 40f
7:00pm 11 20 mph 1004.7mb 40f
6:50pm 9 21 mph 1005.1mb 40f
6:40pm 10 17 mph 1005.1mb 40f
6:30pm 13 21 mph 1005.1mb 40f
6:20pm 11 22 mph 1005.1mb 40f
6:10pm 18 25 mph 1005.1mb 40f
6:00pm 15 22 mph 1005.1mb 40f
5:50pm 11 25 mph 1005.1mb 39f
4:40pm 13 21 mph 1007.8mb 39f
4:30pm 13 20 mph 1007.8mb 38f
4:20pm 15 21 mph 1008.1mb 38f
4:10pm 13 20 mph 1008.8mb 39f
4:00pm 13 22 mph 1008.8mb 39f
3:50pm 15 20 mph 1008.8mb 39f
3:40pm 14 17 mph 1009.1mb 40f
3:30pm 9 20 mph 1009.1mb 40f
3:20pm 14 20 mph 1009.1mb 40f
3:10pm 10 21 mph 1009.1mb 40f
3:00pm 14 21 mph 1009.8mb 40f
2:50pm 11 18 mph 1010.2mb 40f
2:40pm 13 18 mph 1010.5mb 40f
2:30pm 10 16 mph 1010.8mb 40f
2:20pm 10 16 mph 1011.2mb 40f
2:10pm 10 17 mph 1010.8mb 39f
2:00pm 8 18 mph 1011.2mb 39f
1:50pm 14 22 mph 1011.5mb 39f
1:40pm 13 18 mph 1011.5mb 39f
1:30pm 14 20 mph 1011.9mb 39f
1:20pm 13 21 mph 1011.9mb 39f
1:10pm 13 17 mph 1012.5mb 39f
1:00pm 11 18 mph 1012.9mb 39f
12:50pm 15 23 mph 1013.2mb 39f
12:40pm 7 16 mph 1013.9mb 39f
12:30pm 10 20 mph 1014.2mb 39f
12:20pm 13 20 mph 1013.9mb 38f
12:10pm 11 22 mph 1013.9mb 38f
12:00pm 13 18 mph 1013.9mb 38f
11:50am 13 23 mph 1014.2mb 38f
11:40am 14 21 mph 1013.9mb 38f
11:30am 11 23 mph 1014.9mb 38f
11:20am 16 21 mph 1014.9mb 37f
11:10am 13 20 mph 1015.9mb 37f
11:00am 16 21 mph 1015.9mb 37f
10:50am 14 22 mph 1016.3mb 36f
10:40am 8 23 mph 1016.3mb 36f
10:30am 16 26 mph 1016.3mb 36f
10:20am 18 28 mph 1016.3mb 35f
10:10am 14 28 mph 1016.6mb 35f
10:00am 14 24 mph 1016.9mb 35f
9:50am 13 22 mph 1017.6mb 35f
9:40am 14 23 mph 1017.6mb 35f
9:30am 11 20 mph 1017.9mb 35f
9:20am 10 22 mph 1017.9mb 35f
9:10am 13 24 mph 1018.3mb 35f
9:00am 16 22 mph 1018.6mb 34f
8:50am 15 21 mph 1019mb 34f
8:40am 14 21 mph 1018.6mb 34f
8:30am 13 21 mph 1019.3mb 33f
8:20am 13 21 mph 1019mb 33f
8:10am 14 20 mph 1019.3mb 33f
8:00am 15 21 mph 1019.3mb 33f
7:50am 14 20 mph 1019.3mb 33f
7:40am 14 20 mph 1019.3mb 33f
7:30am 14 18 mph 1019.3mb 32f
7:20am 11 16 mph 1019.6mb 32f
7:10am 11 17 mph 1020mb 32f
7:00am 10 14 mph 1020.3mb 32f
6:50am 8 16 mph 1020.3mb 31f
6:40am 9 11 mph 1020.7mb 31f
6:30am 9 16 mph 1020.3mb 31f
6:20am 14 18 mph 1019.6mb 31f
6:10am 10 17 mph 1020.3mb 31f
6:00am 11 14 mph 1020.7mb 31f
5:50am 8 10 mph 1021mb 31f
5:40am 5 9 mph 1021.3mb 30f
5:30am 6 9 mph 1021.7mb 30f
5:20am 6 13 mph 1021.7mb 30f
5:10am 6 13 mph 1021mb 30f
5:00am 6 15 mph 1021mb 30f
4:50am 9 17 mph 1021.3mb 30f
4:40am 10 16 mph 1021.7mb 30f
4:30am 9 15 mph 1022mb 30f
4:20am 9 15 mph 1022.4mb 30f
4:10am 10 15 mph 1022.4mb 30f
4:00am 8 15 mph 1022.7mb 30f
3:50am 9 13 mph 1022.7mb 29f
3:40am 8 13 mph 1023mb 29f
3:30am 8 13 mph 1023mb 30f
3:20am 6 11 mph 1023.4mb 29f
3:10am 7 10 mph 1023.4mb 30f
3:00am 6 10 mph 1023.7mb 30f
2:50am 7 10 mph 1023.7mb 30f
2:40am 6 8 mph 1024mb 30f
2:30am 5 7 mph 1024mb 30f
2:20am 5 7 mph 1024mb 29f
2:10am 2 6 mph 1024mb 30f
2:00am 3 6 mph 1024.4mb 30f
1:50am 5 7 mph 1024mb 29f
1:40am 2 6 mph 1024mb 29f
1:30am 3 6 mph 1024mb 29f
1:20am 3 5 mph 1024mb 29f
1:10am 2 5 mph 1024.4mb 29f
1:00am 1 5 mph 1024.4mb 30f
12:50am 3 5 mph 1024.4mb 30f
12:40am 2 3 mph 1024.4mb 30f
12:30am 2 3 mph 1024.4mb 30f
12:20am 2 6 mph 1024.4mb 30f
12:10am 2 7 mph 1024mb 30f
12:00am 2 8 mph 1023.7mb 30f
Thu 11/16 11:50pm 5 6 mph 1024mb 29f
11:40pm 2 3 mph 1024.4mb 30f
11:30pm 2 6 mph 1024.7mb 30f
11:20pm 3 6 mph 1024.4mb 30f
11:10pm 5 7 mph 1024.4mb 31f
11:00pm 3 8 mph 1024mb 31f
10:50pm 5 8 mph 1024mb 31f
10:40pm 5 7 mph 1024mb 31f
10:30pm 3 7 mph 1024.4mb 31f
10:20pm 3 8 mph 1024.7mb 31f
10:10pm 5 7 mph 1025.1mb 31f
10:00pm 3 9 mph 1025.1mb 31f
9:50pm 5 8 mph 1025.1mb 31f
9:40pm 6 8 mph 1025.1mb 32f
9:30pm 5 9 mph 1025.1mb 32f
9:20pm 5 8 mph 1025.4mb 31f
9:10pm 3 7 mph 1025.7mb 31f
9:00pm 3 7 mph 1025.7mb 31f
8:50pm 5 7 mph 1025.4mb 32f
8:40pm 5 8 mph 1025.7mb 32f
8:30pm 6 10 mph 1025.4mb 32f
8:20pm 7 10 mph 1025.4mb 32f
8:10pm 8 11 mph 1025.4mb 32f
8:00pm 7 10 mph 1025.1mb 33f
7:50pm 9 11 mph 1025.4mb 33f
7:40pm 8 10 mph 1025.4mb 33f
7:30pm 7 10 mph 1025.1mb 33f
7:20pm 6 9 mph 1025.1mb 34f
7:10pm 6 8 mph 1025.1mb 34f
7:00pm 6 10 mph 1025.1mb 34f
6:50pm 8 11 mph 1024.7mb 34f
6:40pm 6 13 mph 1024.4mb 34f
6:30pm 7 10 mph 1024.4mb 34f
6:20pm 7 11 mph 1024mb 34f
6:10pm 7 13 mph 1024.4mb 34f
6:00pm 10 13 mph 1024mb 34f
5:50pm 8 11 mph 1024mb 34f
4:40pm 7 13 mph 1024mb 35f
4:30pm 8 22 mph 1024mb 35f
4:20pm 18 24 mph 1023.7mb 36f
4:10pm 18 24 mph 1023.7mb 37f
4:00pm 21 24 mph 1023.7mb 36f
3:50pm 20 25 mph 1023.7mb 37f
3:40pm 20 23 mph 1023.7mb 37f
3:30pm 18 23 mph 1023.4mb 37f
3:20pm 18 24 mph 1023mb 37f
3:10pm 21 26 mph 1022.7mb 37f
3:00pm 21 25 mph 1022.4mb 36f
2:50pm 18 29 mph 1022.4mb 36f
2:40pm 20 26 mph 1022.4mb 37f
2:30pm 20 25 mph 1022.7mb 37f
2:20pm 21 28 mph 1022.7mb 37f
2:10pm 16 29 mph 1023mb 36f
2:00pm 24 28 mph 1022.7mb 36f
1:50pm 23 28 mph 1022.7mb 36f
1:40pm 25 29 mph 1022.7mb 36f
1:30pm 23 28 mph 1022.4mb 37f
1:20pm 23 28 mph 1022mb 36f
1:10pm 17 28 mph 1022mb 36f
1:00pm 26 30 mph 1021.7mb 37f
12:50pm 24 30 mph 1021mb 37f
12:40pm 23 30 mph 1021.3mb 37f